Location: Unspecified
(0.0000°N, 0.0000°E)
Time: 01:58:05
(UTC+00:00)

Tiros 1 - Pass Details

Date: 24 April 2026
Orbit: 618 x 648 km, 48.4° (Epoch: 15 May)

Event Time Altitude Azimuth Distance (km) Brightness Sun altitude
Exits shadow 03:26:22 13° 107° (ESE) 1,805 9.9 -36.9°
Drops below altitude 10° 03:27:20 10° 96° (E) 1,979 10.3 -36.6°
Sets 03:30:32 0° 72° (ENE) 2,878 11.5 -35.9°
